User: anonymous   Login
Location: Jaboat�o
(8.1170°S, 35.0170°W)
Time: 18:59:53
(UTC-03:00)
Language:

BlueWalker 3 - Orbit

View from above orbital plane
View from above orbital plane
View from above satellite
View from above satellite

Ground track
Ground track

The orbit data is extracted from the following two-line orbital elements,

1 53807U 22111AL  24203.50578628  .00008838  00000-0  34432-3 0  9998
2 53807  53.2360  35.4107 0008043 187.2743 172.8142 15.26725126103478
Epoch (UTC): 21 July 2024 12:08:19
Eccentricity: 0.0008043
inclination: 53.2360°
perigee height: 480 km
apogee height: 491 km
right ascension of ascending node: 35.4107°
argument of perigee: 187.2743°
revolutions per day: 15.26725126
mean anomaly at epoch: 172.8142°
orbit number at epoch: 10347

The dashed part of the orbit path shows where the satellite is in the earth's shadow,  

DLR